Location: Nebula Knoll Observatory
(43.6666°N, 71.0000°W)
Time: 20:03:47
(UTC-04:00)

Daily predictions for brighter satellites

Satellite Brightness Start Highest point End
(mag) Time Altitude Azimuth Time Altitude Azimuth Time Altitude Azimuth
Cosmos 1777 Rocket 4.1 20:58:18 10° SSW 21:03:35 90° ESE 21:08:52 10° NNE
Cosmos 2360 Rocket 2.3 20:58:16 10° NNW 21:03:57 79° ENE 21:09:37 10° SSE
Cosmos 2151 3.4 21:01:17 10° SSE 21:05:16 44° E 21:09:16 10° NNE
Cosmos 1515 Rocket 3.9 21:00:52 10° NNW 21:05:18 68° W 21:09:39 10° S
SL-16 R/B 3.4 21:01:06 10° NW 21:06:21 40° WSW 21:11:35 10° S
Terra 4.0 21:06:46 10° E 21:08:44 13° ENE 21:10:43 10° NE
DELTA 2 R/B (1) 4.2 21:06:47 10° W 21:11:59 42° SSW 21:17:10 10° SE
Sich 1 4.4 21:12:18 10° SE 21:15:45 23° E 21:19:10 10° NE
Meteor 2-20 Rocket 4.5 21:09:50 10° S 21:15:57 75° E 21:22:06 10° NNE
USA 245 3.9 21:16:11 10° ESE 21:17:58 18° ENE 21:19:41 10° NNE
Cosmos 1908 3.5 21:14:38 10° NNW 21:18:32 70° W 21:22:25 10° S
Cosmos 1633 Rocket 4.4 21:15:53 10° SE 21:19:20 23° E 21:22:47 10° NE
Cosmos 2058 3.5 21:16:54 10° SSE 21:20:42 39° E 21:24:32 10° NNE
CZ-4 SHROUD 3.2 21:19:03 10° SSE 21:22:09 66° ENE 21:25:17 10° N
Cosmos 1151 Rocket 3.2 21:18:08 10° NNW 21:22:28 76° W 21:26:46 10° S
Cosmos 2266 Rocket 4.1 21:19:48 10° S 21:26:06 87° W 21:32:20 10° N
Cosmos 405 3.7 21:23:28 10° NNW 21:27:02 56° W 21:30:35 10° S
Cosmos 1674 3.1 21:24:17 10° SSW 21:28:06 67° W 21:31:58 10° N
Cosmos 2315 Rocket 4.0 21:24:12 10° N 21:30:26 73° E 21:36:36 10° SSE
CZ-4B R/B 3.9 21:26:00 10° NNE 21:31:05 46° E 21:36:03 10° S
H-2A R/B 3.5 21:27:26 10° ESE 21:31:47 26° ENE 21:36:11 10° N
Cosmos 2227 Rocket 3.7 21:29:45 12° SE 21:32:51 17° E 21:36:26 10° ENE
Cosmos 1680 Rocket 3.8 21:28:23 10° NNW 21:33:37 71° WSW 21:38:50 10° S
Cosmos 1805 Rocket 3.7 21:30:17 10° S 21:34:38 56° E 21:38:59 10° NNE
Cosmos 1300 2.8 21:35:49 10° N 21:39:38 60° E 21:42:49 14° SSE
YAOGAN 6 2.6 21:38:16 13° SSE 21:41:31 76° ENE 21:45:08 10° N
USA 229 DEB 4.5 21:35:46 10° SW 21:42:35 58° NW 21:49:32 10° NNE
USA 229 4.5 21:35:52 10° SW 21:42:42 59° NW 21:49:39 10° NNE
Tiangong 1 1.9 21:40:16 10° SW 21:42:58 28° SSE 21:45:04 14° ESE
SPOT 1/Viking Rocket 3.6 21:39:09 12° SSE 21:43:53 69° ENE 21:49:01 10° N
Cosmos 2333 Rocket 3.2 21:39:28 10° N 21:44:44 35° NE 21:49:17 13° ESE
SL-16 R/B 4.2 21:41:25 10° N 21:45:01 17° NE 21:48:35 10° E
Cosmos 1898 Rocket 3.7 21:42:56 10° S 21:47:54 48° ESE 21:52:53 10° NNE
Meteor 2-11 Rocket 4.5 21:45:01 10° N 21:51:11 75° E 21:56:40 13° SSE
H-2A R/B 3.8 21:47:15 10° SSW 21:51:17 32° W 21:55:20 10° NNW
Cosmos 1707 Rocket 3.5 21:47:42 10° N 21:52:05 84° E 21:55:47 14° S
Cosmos 2150 Rocket 4.2 21:49:47 10° S 21:55:06 58° ESE 22:00:29 10° NNE
COSMOS 2428 2.8 21:50:59 10° NNW 21:56:41 81° WSW 22:01:17 16° SSE
Cosmos 1666 Rocket 3.5 21:52:49 10° S 21:57:09 72° E 22:01:35 10° NNE
MetOp-A 4.5 21:52:06 10° S 21:57:24 64° WSW 22:02:44 10° NNW
SPOT 5 3.7 21:53:55 10° S 21:58:19 46° W 22:02:59 10° NNW
Cosmos 2297 Rocket 3.5 21:57:44 17° SE 21:59:48 20° E 22:03:50 10° NE
NOSS 3-1 (A) 3.4 21:56:07 10° SSW 22:01:53 63° ESE 22:08:21 10° NE
Cosmos 1455 3.6 21:58:55 10° NNE 22:02:07 25° ENE 22:03:46 19° ESE
BREEZE-M DEB (TANK) 3.1 22:00:34 10° NW 22:02:26 32° NNE 22:04:44 11° E
ARGOS 3.1 21:59:31 15° SSE 22:03:59 87° ENE 22:09:25 10° NNW
Cosmos 2219 Rocket 2.4 21:59:26 10° NNW 22:05:00 62° ENE 22:08:52 20° SE
Cosmos 1745 Rocket 4.2 22:02:35 15° SSE 22:07:31 53° E 22:13:30 10° NNE
Cosmos 1470 Rocket 4.1 22:08:35 23° SE 22:10:46 39° E 22:14:48 10° NNE
Cosmos 1933 Rocket 4.2 22:09:41 22° SSE 22:11:59 39° E 22:16:10 10° NNE
NOSS 0 Rocket 4.0 22:11:04 10° NNW 22:17:14 70° ENE 22:21:19 22° SE
Cosmos 1869 4.3 22:15:21 10° N 22:19:04 33° ENE 22:20:38 24° ESE
Cosmos 1726 2.8 22:17:10 10° NNW 22:20:53 53° W 22:23:25 19° SSW
Cosmos 1980 3.9 22:18:19 10° NNW 22:23:57 63° ENE 22:27:20 24° SE
ATLAS 2AS CENTAUR R/B 3.4 22:18:20 13° S 22:24:25 42° ESE 22:31:48 10° NE
USA 32 4.0 22:20:12 10° N 22:25:29 85° W 22:29:09 20° S
CZ-4C R/B 2.9 22:24:04 31° S 22:25:38 86° WSW 22:29:08 10° NNW
Cosmos 292 Rocket 3.8 22:23:18 10° NNW 22:28:05 74° WSW 22:30:47 25° S
Landsat 7 3.8 22:27:03 24° SSE 22:29:55 86° WSW 22:34:43 10° NNW
Cosmos 2219 4.3 22:25:10 10° SW 22:30:40 46° WNW 22:36:13 10° NNE
ERBS 2.8 22:32:03 38° SE 22:32:03 38° SE 22:35:11 10° ENE
Cosmos 2237 Rocket 2.3 22:30:50 10° NNW 22:36:34 73° ENE 22:39:42 28° SE
Cosmos 1271 Rocket 3.3 22:34:23 10° NNW 22:38:07 52° W 22:40:05 25° SSW
ATLAS 3B R/B 3.3 22:32:23 10° NNW 22:39:16 50° NE 22:44:01 19° ESE
Meteor 2-10 4.3 22:33:44 10° NNW 22:39:27 77° W 22:43:05 24° S
Cosmos 2082 3.7 22:38:00 20° S 22:41:56 62° ESE 22:47:35 10° NNE
Meteor 1-4 Rocket 3.7 22:40:06 10° NNW 22:43:38 39° W 22:45:29 22° SSW
Cosmos 1703 3.7 22:41:15 20° SSW 22:43:46 58° W 22:47:39 10° N
Cosmos 2242 Rocket 4.4 22:39:38 10° NNW 22:43:55 46° W 22:46:44 20° SSW
Cosmos 1346 2.9 22:45:04 60° S 22:45:33 87° E 22:48:36 10° N
Terra 1.8 22:43:25 30° S 22:45:47 85° WSW 22:50:34 10° NNW
Cosmos 1937 Rocket 3.7 22:41:31 10° SSW 22:46:44 72° WNW 22:51:57 10° NNE
Cosmos 2360 Rocket 4.5 22:44:07 10° WNW 22:47:11 15° W 22:50:15 10° SW
NOSS 3-1 (C) 4.2 22:42:52 10° SW 22:48:41 54° NW 22:55:15 10° NNE
Iridium 2 4.3 22:47:14 24° SSW 22:49:18 54° W 22:53:06 10° N
Spot 4 3.8 22:47:26 33° SSE 22:49:40 83° ENE 22:54:33 10° NNW
Cosmos 1862 Rocket 3.5 22:46:28 10° N 22:50:50 85° W 22:52:33 36° S
Lacrosse 4 Rocket 2.6 22:47:20 10° NNW 22:51:25 35° NE 22:53:24 24° E
CARTOSAT-1 3.7 22:51:08 32° S 22:53:00 66° WSW 22:57:19 10° NNW
FALCON 9 R/B 3.8 22:33:08 10° W 22:56:09 52° SSW 23:00:29 25° SE
Cosmos 990 Rocket 4.0 22:53:44 18° SSW 22:57:37 80° WNW 23:02:47 10° NNE
Cosmos 1626 2.3 23:01:02 37° SSW 23:02:22 68° W 23:06:07 10° N
OAO 2 Rocket 4.3 22:59:25 10° WSW 23:03:20 30° SSW 23:03:20 30° SSW
COSMOS 2455 3.0 23:01:16 10° NNW 23:07:18 67° ENE 23:10:13 31° SE
H-2A R/B 2.8 23:08:03 25° SSW 23:10:53 47° W 23:16:09 10° NNW
Cosmos 1269 Rocket 4.0 23:06:44 10° NNW 23:12:04 75° ENE 23:14:03 39° SE
Cosmos 2227 Rocket 2.4 23:11:30 15° SW 23:16:15 70° WNW 23:21:56 10° NNE
Cosmos 1933 3.2 23:14:10 10° N 23:18:15 81° E 23:18:58 59° SSE
Tiangong 1 3.2 23:16:15 10° WSW 23:17:12 18° WSW 23:17:12 18° WSW
Cosmos 1869 Rocket 3.8 23:19:15 47° SE 23:20:03 55° E 23:24:27 10° NNE
H-2A R/B 4.1 23:19:41 10° NE 23:22:51 22° E 23:22:51 22° E
GEOS 3 Rocket 4.4 23:21:56 22° ESE 23:24:56 45° NE 23:29:51 10° NNW
BREEZE-M DEB (TANK) 4.0 23:13:20 10° WNW 23:25:51 58° N 23:29:10 13° E
NOSS 2-3 (C) 4.3 23:25:51 42° SE 23:26:22 43° ESE 23:31:38 10° NE
Cosmos 2333 Rocket 3.1 23:23:44 10° NW 23:29:01 38° WSW 23:31:18 27° SSW
Cosmos 389 Rocket 2.9 23:26:19 10° N 23:29:47 50° ENE 23:29:47 50° ENE
SL-16 R/B 2.1 23:24:17 10° NNW 23:29:59 87° ENE 23:32:01 42° SSE
SeaSat 1 2.6 23:29:32 39° SE 23:31:14 64° ENE 23:36:08 10° NNW
ALOS 2 3.6 23:31:51 30° E 23:32:52 34° ENE 23:36:50 10° N
Cosmos 1048 Rocket 4.0 23:30:17 10° NNW 23:35:41 87° WSW 23:37:19 47° SSE
Cosmos 1125 Rocket 3.5 23:33:30 36° SSW 23:35:44 86° WNW 23:41:05 10° NNE
CZ-4B R/B 3.1 23:36:58 25° ENE 23:37:02 25° ENE 23:39:53 10° NNE
Cosmos 1455 4.1 23:34:46 10° NW 23:37:44 22° W 23:38:49 19° WSW
Cosmos 1340 Rocket 4.3 23:40:24 23° E 23:40:24 23° E 23:43:11 10° NE
Cosmos 2297 Rocket 2.6 23:39:29 20° SW 23:43:19 61° WNW 23:48:57 10° NNE
ASTEX 1 4.1 23:39:17 10° NNE 23:43:50 37° E 23:44:32 35° ESE
Okean 1-7 2.8 23:40:38 10° N 23:44:56 88° E 23:45:28 68° SSE
CZ-2C R/B 4.3 23:42:07 10° NE 23:45:24 17° E 23:45:59 16° E
NOSS 2-3 (D) 4.0 23:46:30 52° SSE 23:47:24 62° ESE 23:52:59 10° NE
Cosmos 2219 Rocket 4.0 23:44:30 10° NW 23:48:26 20° W 23:50:35 16° SW
Cosmos 1703 Rocket 4.1 23:47:35 10° NNW 23:51:47 47° W 23:52:36 42° SW
